Riverside March, CA

8:42 PM PST on November 19, 2017 (GMT -0800)
March Air Reserve Base

Weather History for KRIV - April, 2014

Change the Weather History Date:

Tuesday, April 8, 2014

  Actual Average Record
Temperature  
Mean Temperature 68 °F -  
Max Temperature 90 °F 67 °F 90 °F (2014)
Min Temperature 46 °F 42 °F 35 °F (2001)
Cooling Degree Days 2    
Growing Degree Days 18 (Base 50)    
Moisture  
Dew Point 32 °F    
Average Humidity 32    
Maximum Humidity 66    
Minimum Humidity 8    
Precipitation  
Precipitation 0.00 in - - ()
Sea Level Pressure  
Sea Level Pressure 30.07 in    
Wind  
Wind Speed 3 mph (NW)    
Max Wind Speed 12 mph    
Max Gust Speed -    
Visibility 10 miles    
Events      
Averages and records for this station are not official NWS values.
T = Trace of Precipitation, MM = Missing Value Source: NWS Daily Summary

Daily Weather History Graph

Daily Weather History Graph

Search for Another Location

Airport or City:

Trip Planner

Search our weather history database for the weather conditions in past years. The results will help you decide how hot, cold, wet, or windy it might be!

Date:

Astronomy

Apr. 08, 2014 Rise Set
Actual Time 6:27 AM PDT 7:15 PM PDT
Civil Twilight 6:01 AM PDT 7:40 PM PDT
Nautical Twilight 5:31 AM PDT 8:10 PM PDT
Astronomical Twilight 5:01 AM PDT 8:41 PM PDT
Moon 1:28 PM PDT (4/8) 2:26 AM PDT (4/8)
Length of Visible Light 13h 38m
Length of Day
12h 48m
Waxing Gibbous, 63% of the Moon is Illuminated
Apr 8
Waxing Gibbous
Apr 15
Full
Apr 22
Last Quarter
Apr 28
New
May 6
First Quarter

Hourly Weather History & Observations

Time (PDT) Temp. Dew Point Humidity Pressure Visibility Wind Dir Wind Speed Gust Speed Precip Events Conditions
12:58 AM 54.9 °F 36.3 °F 50% 30.10 in 10.0 mi WSW 3.5 mph - N/A   Clear
1:58 AM 51.8 °F 35.6 °F 54% 30.09 in 10.0 mi Calm Calm - N/A   Clear
2:58 AM 50.9 °F 35.6 °F 56% 30.09 in 10.0 mi NW 1.2 mph - N/A   Clear
3:58 AM 49.1 °F 35.8 °F 60% 30.09 in 10.0 mi Calm Calm - N/A   Clear
4:58 AM 47.3 °F 34.9 °F 62% 30.09 in 10.0 mi Calm Calm - N/A   Clear
5:58 AM 46.2 °F 35.6 °F 66% 30.10 in 10.0 mi Calm Calm - N/A   Clear
6:58 AM 49.5 °F 36.7 °F 61% 30.11 in 10.0 mi Calm Calm - N/A   Clear
7:58 AM 57.6 °F 38.5 °F 49% 30.13 in 10.0 mi Calm Calm - N/A   Clear
8:58 AM 65.5 °F 39.0 °F 38% 30.13 in 10.0 mi Calm Calm - N/A   Clear
9:58 AM 73.2 °F 35.6 °F 25% 30.13 in 10.0 mi NE 1.2 mph - N/A   Clear
10:58 AM 80.8 °F 35.1 °F 19% 30.12 in 10.0 mi Calm Calm - N/A   Clear
11:58 AM 84.9 °F 29.5 °F 13% 30.10 in 10.0 mi North 1.2 mph - N/A   Clear
12:58 PM 87.3 °F 28.8 °F 12% 30.08 in 10.0 mi NW 5.8 mph - N/A   Clear
1:58 PM 88.3 °F 25.9 °F 10% 30.06 in 10.0 mi North 6.9 mph - N/A   Clear
2:58 PM 89.1 °F 21.0 °F 8% 30.03 in 10.0 mi Variable 4.6 mph - N/A   Mostly Cloudy
3:58 PM 89.6 °F 29.1 °F 11% 30.01 in 10.0 mi NW 10.4 mph - N/A   Mostly Cloudy
4:58 PM 89.1 °F 28.9 °F 12% 30.01 in 10.0 mi NW 6.9 mph - N/A   Mostly Cloudy
5:58 PM 87.6 °F 25.2 °F 10% 30.01 in 10.0 mi WNW 11.5 mph - N/A   Mostly Cloudy
6:58 PM 82.8 °F 24.1 °F 12% 30.01 in 10.0 mi West 9.2 mph - N/A   Mostly Cloudy
7:58 PM 74.5 °F 27.9 °F 18% 30.01 in 10.0 mi NW 9.2 mph - N/A   Mostly Cloudy
8:58 PM 69.1 °F 35.4 °F 29% 30.04 in 10.0 mi WNW 9.2 mph - N/A   Clear
9:58 PM 69.6 °F 33.1 °F 26% 30.05 in 10.0 mi NNW 4.6 mph - N/A   Clear
10:58 PM 64.2 °F 33.3 °F 32% 30.05 in 10.0 mi NW 3.5 mph - N/A   Scattered Clouds
11:58 PM 62.4 °F 33.1 °F 33% 30.05 in 10.0 mi WSW 2.3 mph - N/A   Clear